Year,Month,Day,Hour,Minute,Value (Times are PST for temperature in C)
2010,09,28,00,00,16.80
2010,09,28,00,01,16.80
2010,09,28,00,02,16.80
2010,09,28,00,03,16.80
2010,09,28,00,04,16.70
2010,09,28,00,05,16.80
2010,09,28,00,06,16.70
2010,09,28,00,07,16.70
2010,09,28,00,08,16.70
2010,09,28,00,09,16.70
2010,09,28,00,10,16.70
2010,09,28,00,11,16.70
2010,09,28,00,12,16.70
2010,09,28,00,13,16.70
2010,09,28,00,14,16.70
2010,09,28,00,15,16.70
2010,09,28,00,16,16.70
2010,09,28,00,17,16.70
2010,09,28,00,18,16.70
2010,09,28,00,19,16.70
2010,09,28,00,20,16.60
2010,09,28,00,21,16.60
2010,09,28,00,22,16.60
2010,09,28,00,23,16.60
2010,09,28,00,24,16.60
2010,09,28,00,25,16.60
2010,09,28,00,26,16.60
2010,09,28,00,27,16.60
2010,09,28,00,28,16.60
2010,09,28,00,29,16.60
2010,09,28,00,30,16.50
2010,09,28,00,31,16.50
2010,09,28,00,32,16.50
2010,09,28,00,33,16.50
2010,09,28,00,34,16.50
2010,09,28,00,35,16.50
2010,09,28,00,36,16.50
2010,09,28,00,37,16.50
2010,09,28,00,38,16.40
2010,09,28,00,39,16.40
2010,09,28,00,40,16.40
2010,09,28,00,41,16.40
2010,09,28,00,42,16.40
2010,09,28,00,43,16.40
2010,09,28,00,44,16.40
2010,09,28,00,45,16.40
2010,09,28,00,46,16.40
2010,09,28,00,47,16.40
2010,09,28,00,48,16.40
2010,09,28,00,49,16.30
2010,09,28,00,50,16.30
2010,09,28,00,51,16.30
2010,09,28,00,52,16.30
2010,09,28,00,53,16.30
2010,09,28,00,54,16.30
2010,09,28,00,55,16.30
2010,09,28,00,56,16.30
2010,09,28,00,57,16.30
2010,09,28,00,58,16.30
2010,09,28,00,59,16.30
2010,09,28,01,00,16.30
2010,09,28,01,01,16.30
2010,09,28,01,02,16.30
2010,09,28,01,03,16.30
2010,09,28,01,04,16.30
2010,09,28,01,05,16.30
2010,09,28,01,06,16.30
2010,09,28,01,07,16.30
2010,09,28,01,08,16.30
2010,09,28,01,09,16.30
2010,09,28,01,10,16.30
2010,09,28,01,11,16.30
2010,09,28,01,12,16.30
2010,09,28,01,13,16.30
2010,09,28,01,14,16.20
2010,09,28,01,15,16.20
2010,09,28,01,16,16.20
2010,09,28,01,17,16.20
2010,09,28,01,18,16.20
2010,09,28,01,19,16.20
2010,09,28,01,20,16.20
2010,09,28,01,21,16.20
2010,09,28,01,22,16.20
2010,09,28,01,23,16.20
2010,09,28,01,24,16.20
2010,09,28,01,25,16.20
2010,09,28,01,26,16.20
2010,09,28,01,27,16.20
2010,09,28,01,28,16.20
2010,09,28,01,29,16.20
2010,09,28,01,30,16.20
2010,09,28,01,31,16.20
2010,09,28,01,32,16.20
2010,09,28,01,33,16.20
2010,09,28,01,34,16.20
2010,09,28,01,35,16.10
2010,09,28,01,36,16.10
2010,09,28,01,37,16.10
2010,09,28,01,38,16.10
2010,09,28,01,39,16.10
2010,09,28,01,40,16.10
2010,09,28,01,41,16.10
2010,09,28,01,42,16.10
2010,09,28,01,43,16.10
2010,09,28,01,44,16.10
2010,09,28,01,45,16.10
2010,09,28,01,46,16.10
2010,09,28,01,47,16.10
2010,09,28,01,48,16.10
2010,09,28,01,49,16.10
2010,09,28,01,50,16.10
2010,09,28,01,51,16.10
2010,09,28,01,52,16.10
2010,09,28,01,53,16.10
2010,09,28,01,54,16.10
2010,09,28,01,55,16.10
2010,09,28,01,56,16.10
2010,09,28,01,57,16.10
2010,09,28,01,58,16.10
2010,09,28,01,59,16.10
2010,09,28,02,00,16.10
2010,09,28,02,01,16.10
2010,09,28,02,02,16.10
2010,09,28,02,03,16.00
2010,09,28,02,04,16.00
2010,09,28,02,05,16.00
2010,09,28,02,06,16.00
2010,09,28,02,07,16.00
2010,09,28,02,08,16.00
2010,09,28,02,09,16.00
2010,09,28,02,10,16.00
2010,09,28,02,11,16.00
2010,09,28,02,12,16.00
2010,09,28,02,13,16.00
2010,09,28,02,14,15.90
2010,09,28,02,15,15.90
2010,09,28,02,16,15.90
2010,09,28,02,17,15.90
2010,09,28,02,18,15.90
2010,09,28,02,19,15.90
2010,09,28,02,20,15.90
2010,09,28,02,21,15.90
2010,09,28,02,22,15.90
2010,09,28,02,23,15.90
2010,09,28,02,24,15.90
2010,09,28,02,25,15.90
2010,09,28,02,26,15.90
2010,09,28,02,27,15.90
2010,09,28,02,28,15.90
2010,09,28,02,29,15.90
2010,09,28,02,30,15.80
2010,09,28,02,31,15.80
2010,09,28,02,32,15.80
2010,09,28,02,33,15.80
2010,09,28,02,34,15.80
2010,09,28,02,35,15.80
2010,09,28,02,36,15.80
2010,09,28,02,37,15.80
2010,09,28,02,38,15.80
2010,09,28,02,39,15.80
2010,09,28,02,40,15.80
2010,09,28,02,41,15.70
2010,09,28,02,42,15.70
2010,09,28,02,43,15.70
2010,09,28,02,44,15.70
2010,09,28,02,45,15.70
2010,09,28,02,46,15.70
2010,09,28,02,47,15.70
2010,09,28,02,48,15.70
2010,09,28,02,49,15.70
2010,09,28,02,50,15.70
2010,09,28,02,51,15.70
2010,09,28,02,52,15.70
2010,09,28,02,53,15.70
2010,09,28,02,54,15.70
2010,09,28,02,55,15.70
2010,09,28,02,56,15.70
2010,09,28,02,57,15.70
2010,09,28,02,58,15.60
2010,09,28,02,59,15.60
2010,09,28,03,00,15.60
2010,09,28,03,01,15.60
2010,09,28,03,02,15.60
2010,09,28,03,03,15.60
2010,09,28,03,04,15.60
2010,09,28,03,05,15.60
2010,09,28,03,06,15.60
2010,09,28,03,07,15.60
2010,09,28,03,08,15.60
2010,09,28,03,09,15.60
2010,09,28,03,10,15.50
2010,09,28,03,11,15.50
2010,09,28,03,12,15.50
2010,09,28,03,13,15.50
2010,09,28,03,14,15.50
2010,09,28,03,15,15.50
2010,09,28,03,16,15.50
2010,09,28,03,17,15.50
2010,09,28,03,18,15.50
2010,09,28,03,19,15.50
2010,09,28,03,20,15.50
2010,09,28,03,21,15.50
2010,09,28,03,22,15.50
2010,09,28,03,23,15.50
2010,09,28,03,24,15.50
2010,09,28,03,25,15.50
2010,09,28,03,26,15.50
2010,09,28,03,27,15.50
2010,09,28,03,28,15.50
2010,09,28,03,29,15.50
2010,09,28,03,30,15.60
2010,09,28,03,31,15.50
2010,09,28,03,32,15.50
2010,09,28,03,33,15.50
2010,09,28,03,34,15.50
2010,09,28,03,35,15.50
2010,09,28,03,36,15.50
2010,09,28,03,37,15.50
2010,09,28,03,38,15.50
2010,09,28,03,39,15.50
2010,09,28,03,40,15.50
2010,09,28,03,41,15.50
2010,09,28,03,42,15.50
2010,09,28,03,43,15.50
2010,09,28,03,44,15.50
2010,09,28,03,45,15.50
2010,09,28,03,46,15.50
2010,09,28,03,47,15.50
2010,09,28,03,48,15.50
2010,09,28,03,49,15.50
2010,09,28,03,50,15.50
2010,09,28,03,51,15.50
2010,09,28,03,52,15.50
2010,09,28,03,53,15.50
2010,09,28,03,54,15.50
2010,09,28,03,55,15.50
2010,09,28,03,56,15.50
2010,09,28,03,57,15.40
2010,09,28,03,58,15.40
2010,09,28,03,59,15.40
2010,09,28,04,00,15.40
2010,09,28,04,01,15.40
2010,09,28,04,02,15.40
2010,09,28,04,03,15.40
2010,09,28,04,04,15.40
2010,09,28,04,05,15.40
2010,09,28,04,06,15.40
2010,09,28,04,07,15.40
2010,09,28,04,08,15.40
2010,09,28,04,09,15.40
2010,09,28,04,10,15.40
2010,09,28,04,11,15.40
2010,09,28,04,12,15.40
2010,09,28,04,13,15.40
2010,09,28,04,14,15.40
2010,09,28,04,15,15.40
2010,09,28,04,16,15.40
2010,09,28,04,17,15.40
2010,09,28,04,18,15.30
2010,09,28,04,19,15.30
2010,09,28,04,20,15.30
2010,09,28,04,21,15.30
2010,09,28,04,22,15.30
2010,09,28,04,23,15.30
2010,09,28,04,24,15.30
2010,09,28,04,25,15.30
2010,09,28,04,26,15.30
2010,09,28,04,27,15.30
2010,09,28,04,28,15.20
2010,09,28,04,29,15.20
2010,09,28,04,30,15.20
2010,09,28,04,31,15.20
2010,09,28,04,32,15.20
2010,09,28,04,33,15.20
2010,09,28,04,34,15.20
2010,09,28,04,35,15.20
2010,09,28,04,36,15.20
2010,09,28,04,37,15.20
2010,09,28,04,38,15.10
2010,09,28,04,39,15.10
2010,09,28,04,40,15.10
2010,09,28,04,41,15.00
2010,09,28,04,42,15.00
2010,09,28,04,43,15.00
2010,09,28,04,44,15.00
2010,09,28,04,45,15.00
2010,09,28,04,46,15.00
2010,09,28,04,47,15.00
2010,09,28,04,48,15.00
2010,09,28,04,49,15.00
2010,09,28,04,50,15.00
2010,09,28,04,51,15.00
2010,09,28,04,52,15.00
2010,09,28,04,53,15.00
2010,09,28,04,54,15.00
2010,09,28,04,55,15.00
2010,09,28,04,56,15.00
2010,09,28,04,57,15.00
2010,09,28,04,58,15.00
2010,09,28,04,59,15.00
2010,09,28,05,00,15.00
2010,09,28,05,01,15.00
2010,09,28,05,02,15.00
2010,09,28,05,03,15.00
2010,09,28,05,04,15.00
2010,09,28,05,05,15.00
2010,09,28,05,06,15.00
2010,09,28,05,07,15.00
2010,09,28,05,08,15.00
2010,09,28,05,09,15.00
2010,09,28,05,10,15.00
2010,09,28,05,11,15.00
2010,09,28,05,12,15.00
2010,09,28,05,13,15.00
2010,09,28,05,14,14.90
2010,09,28,05,15,14.90
2010,09,28,05,16,14.90
2010,09,28,05,17,14.90
2010,09,28,05,18,14.90
2010,09,28,05,19,14.90
2010,09,28,05,20,14.90
2010,09,28,05,21,14.90
2010,09,28,05,22,14.90
2010,09,28,05,23,14.90
2010,09,28,05,24,14.90
2010,09,28,05,25,14.90
2010,09,28,05,26,14.80
2010,09,28,05,27,14.80
2010,09,28,05,28,14.80
2010,09,28,05,29,14.80
2010,09,28,05,30,14.80
2010,09,28,05,31,14.80
2010,09,28,05,32,14.80
2010,09,28,05,33,14.80
2010,09,28,05,34,14.80
2010,09,28,05,35,14.80
2010,09,28,05,36,14.80
2010,09,28,05,37,14.80
2010,09,28,05,38,14.80
2010,09,28,05,39,14.70
2010,09,28,05,40,14.70
2010,09,28,05,41,14.70
2010,09,28,05,42,14.70
2010,09,28,05,43,14.70
2010,09,28,05,44,14.70
2010,09,28,05,45,14.70
2010,09,28,05,46,14.70
2010,09,28,05,47,14.70
2010,09,28,05,48,14.70
2010,09,28,05,49,14.60
2010,09,28,05,50,14.60
2010,09,28,05,51,14.60
2010,09,28,05,52,14.60
2010,09,28,05,53,14.60
2010,09,28,05,54,14.60
2010,09,28,05,55,14.60
2010,09,28,05,56,14.60
2010,09,28,05,57,14.60
2010,09,28,05,58,14.60
2010,09,28,05,59,14.60
2010,09,28,06,00,14.60
2010,09,28,06,01,14.50
2010,09,28,06,02,14.50
2010,09,28,06,03,14.50
2010,09,28,06,04,14.50
2010,09,28,06,05,14.50
2010,09,28,06,06,14.50
2010,09,28,06,07,14.50
2010,09,28,06,08,14.50
2010,09,28,06,09,14.50
2010,09,28,06,10,14.50
2010,09,28,06,11,14.50
2010,09,28,06,12,14.50
2010,09,28,06,13,14.50
2010,09,28,06,14,14.50
2010,09,28,06,15,14.50
2010,09,28,06,16,14.50
2010,09,28,06,17,14.50
2010,09,28,06,18,14.50
2010,09,28,06,19,14.50
2010,09,28,06,20,14.40
2010,09,28,06,21,14.40
2010,09,28,06,22,14.40
2010,09,28,06,23,14.40
2010,09,28,06,24,14.40
2010,09,28,06,25,14.40
2010,09,28,06,26,14.40
2010,09,28,06,27,14.40
2010,09,28,06,28,14.40
2010,09,28,06,29,14.40
2010,09,28,06,30,14.40
2010,09,28,06,31,14.40
2010,09,28,06,32,14.40
2010,09,28,06,33,14.30
2010,09,28,06,34,14.30
2010,09,28,06,35,14.30
2010,09,28,06,36,14.30
2010,09,28,06,37,14.30
2010,09,28,06,38,14.30
2010,09,28,06,39,14.30
2010,09,28,06,40,14.30
2010,09,28,06,41,14.30
2010,09,28,06,42,14.30
2010,09,28,06,43,14.30
2010,09,28,06,44,14.30
2010,09,28,06,45,14.30
2010,09,28,06,46,14.30
2010,09,28,06,47,14.30
2010,09,28,06,48,14.20
2010,09,28,06,49,14.30
2010,09,28,06,50,14.20
2010,09,28,06,51,14.30
2010,09,28,06,52,14.20
2010,09,28,06,53,14.30
2010,09,28,06,54,14.30
2010,09,28,06,55,14.30
2010,09,28,06,56,14.30
2010,09,28,06,57,14.30
2010,09,28,06,58,14.20
2010,09,28,06,59,14.20
2010,09,28,07,00,14.20
2010,09,28,07,01,14.20
2010,09,28,07,02,14.20
2010,09,28,07,03,14.20
2010,09,28,07,04,14.20
2010,09,28,07,05,14.20
2010,09,28,07,06,14.20
2010,09,28,07,07,14.20
2010,09,28,07,08,14.20
2010,09,28,07,09,14.20
2010,09,28,07,10,14.20
2010,09,28,07,11,14.20
2010,09,28,07,12,14.20
2010,09,28,07,13,14.20
2010,09,28,07,14,14.20
2010,09,28,07,15,14.20
2010,09,28,07,16,14.20
2010,09,28,07,17,14.20
2010,09,28,07,18,14.20
2010,09,28,07,19,14.20
2010,09,28,07,20,14.20
2010,09,28,07,21,14.20
2010,09,28,07,22,14.20
2010,09,28,07,23,14.20
2010,09,28,07,24,14.20
2010,09,28,07,25,14.20
2010,09,28,07,26,14.20
2010,09,28,07,27,14.10
2010,09,28,07,28,14.10
2010,09,28,07,29,14.10
2010,09,28,07,30,14.00
2010,09,28,07,31,14.00
2010,09,28,07,32,14.00
2010,09,28,07,33,13.90
2010,09,28,07,34,13.90
2010,09,28,07,35,13.90
2010,09,28,07,36,13.90
2010,09,28,07,37,13.90
2010,09,28,07,38,13.90
2010,09,28,07,39,13.90
2010,09,28,07,40,13.90
2010,09,28,07,41,13.90
2010,09,28,07,42,13.90
2010,09,28,07,43,13.90
2010,09,28,07,44,13.90
2010,09,28,07,45,13.80
2010,09,28,07,46,13.80
2010,09,28,07,47,13.80
2010,09,28,07,48,13.80
2010,09,28,07,49,13.80
2010,09,28,07,50,13.80
2010,09,28,07,51,13.80
2010,09,28,07,52,13.80
2010,09,28,07,53,13.80
2010,09,28,07,54,13.80
2010,09,28,07,55,13.80
2010,09,28,07,56,13.80
2010,09,28,07,57,13.80
2010,09,28,07,58,13.80
2010,09,28,07,59,13.80
2010,09,28,08,00,13.70
2010,09,28,08,01,13.70
2010,09,28,08,02,13.70
2010,09,28,08,03,13.70
2010,09,28,08,04,13.80
2010,09,28,08,05,13.80
2010,09,28,08,06,13.80
2010,09,28,08,07,13.80
2010,09,28,08,08,13.80
2010,09,28,08,09,13.90
2010,09,28,08,10,13.90
2010,09,28,08,11,13.90
2010,09,28,08,12,13.90
2010,09,28,08,13,13.90
2010,09,28,08,14,13.90
2010,09,28,08,15,13.90
2010,09,28,08,16,13.90
2010,09,28,08,17,13.90
2010,09,28,08,18,13.90
2010,09,28,08,19,14.00
2010,09,28,08,20,14.00
2010,09,28,08,21,14.00
2010,09,28,08,22,14.00
2010,09,28,08,23,14.10
2010,09,28,08,24,14.10
2010,09,28,08,25,14.10
2010,09,28,08,26,14.20
2010,09,28,08,27,14.20
2010,09,28,08,28,14.20
2010,09,28,08,29,14.20
2010,09,28,08,30,14.20
2010,09,28,08,31,14.30
2010,09,28,08,32,14.30
2010,09,28,08,33,14.30
2010,09,28,08,34,14.40
2010,09,28,08,35,14.40
2010,09,28,08,36,14.40
2010,09,28,08,37,14.40
2010,09,28,08,38,14.40
2010,09,28,08,39,14.40
2010,09,28,08,40,14.40
2010,09,28,08,41,14.40
2010,09,28,08,42,14.50
2010,09,28,08,43,14.50
2010,09,28,08,44,14.50
2010,09,28,08,45,14.60
2010,09,28,08,46,14.60
2010,09,28,08,47,14.60
2010,09,28,08,48,14.60
2010,09,28,08,49,14.60
2010,09,28,08,50,14.60
2010,09,28,08,51,14.60
2010,09,28,08,52,14.60
2010,09,28,08,53,14.60
2010,09,28,08,54,14.60
2010,09,28,08,55,14.60
2010,09,28,08,56,14.60
2010,09,28,08,57,14.60
2010,09,28,08,58,14.60
2010,09,28,08,59,14.60
2010,09,28,09,00,14.60
2010,09,28,09,01,14.60
2010,09,28,09,02,14.50
2010,09,28,09,03,14.50
2010,09,28,09,04,14.50
2010,09,28,09,05,14.50
2010,09,28,09,06,14.50
2010,09,28,09,07,14.50
2010,09,28,09,08,14.50
2010,09,28,09,09,14.40
2010,09,28,09,10,14.40
2010,09,28,09,11,14.40
2010,09,28,09,12,14.40
2010,09,28,09,13,14.40
2010,09,28,09,14,14.40
2010,09,28,09,15,14.40
2010,09,28,09,16,14.40
2010,09,28,09,17,14.40
2010,09,28,09,18,14.40
2010,09,28,09,19,14.40
2010,09,28,09,20,14.40
2010,09,28,09,21,14.40
2010,09,28,09,22,14.40
2010,09,28,09,23,14.40
2010,09,28,09,24,14.30
2010,09,28,09,25,14.30
2010,09,28,09,26,14.30
2010,09,28,09,27,14.30
2010,09,28,09,28,14.30
2010,09,28,09,29,14.30
2010,09,28,09,30,14.30
2010,09,28,09,31,14.20
2010,09,28,09,32,14.20
2010,09,28,09,33,14.20
2010,09,28,09,34,14.20
2010,09,28,09,35,14.20
2010,09,28,09,36,14.20
2010,09,28,09,37,14.20
2010,09,28,09,38,14.20
2010,09,28,09,39,14.20
2010,09,28,09,40,14.20
2010,09,28,09,41,14.20
2010,09,28,09,42,14.20
2010,09,28,09,43,14.20
2010,09,28,09,44,14.20
2010,09,28,09,45,14.20
2010,09,28,09,46,14.20
2010,09,28,09,47,14.20
2010,09,28,09,48,14.20
2010,09,28,09,49,14.20
2010,09,28,09,50,14.20
2010,09,28,09,51,14.20
2010,09,28,09,52,14.20
2010,09,28,09,53,14.20
2010,09,28,09,54,14.20
2010,09,28,09,55,14.20
2010,09,28,09,56,14.20
2010,09,28,09,57,14.20
2010,09,28,09,58,14.20
2010,09,28,09,59,14.20
2010,09,28,10,00,14.20
2010,09,28,10,01,14.20
2010,09,28,10,02,14.20
2010,09,28,10,03,14.20
2010,09,28,10,04,14.20
2010,09,28,10,05,14.20
2010,09,28,10,06,14.20
2010,09,28,10,07,14.20
2010,09,28,10,08,14.20
2010,09,28,10,09,14.20
2010,09,28,10,10,14.20
2010,09,28,10,11,14.20
2010,09,28,10,12,14.20
2010,09,28,10,13,14.20
2010,09,28,10,14,14.20
2010,09,28,10,15,14.20
2010,09,28,10,16,14.20
2010,09,28,10,17,14.20
2010,09,28,10,18,14.20
2010,09,28,10,19,14.20
2010,09,28,10,20,14.20
2010,09,28,10,21,14.20
2010,09,28,10,22,14.20
2010,09,28,10,23,14.10
2010,09,28,10,24,14.10
2010,09,28,10,25,14.10
2010,09,28,10,26,14.10
2010,09,28,10,27,14.20
2010,09,28,10,28,14.20
2010,09,28,10,29,14.20
2010,09,28,10,30,14.20
2010,09,28,10,31,14.20
2010,09,28,10,32,14.20
2010,09,28,10,33,14.20
2010,09,28,10,34,14.20
2010,09,28,10,35,14.20
2010,09,28,10,36,14.30
2010,09,28,10,37,14.30
2010,09,28,10,38,14.30
2010,09,28,10,39,14.30
2010,09,28,10,40,14.30
2010,09,28,10,41,14.40
2010,09,28,10,42,14.40
2010,09,28,10,43,14.40
2010,09,28,10,44,14.40
2010,09,28,10,45,14.40
2010,09,28,10,46,14.40
2010,09,28,10,47,14.40
2010,09,28,10,48,14.40
2010,09,28,10,49,14.40
2010,09,28,10,50,14.50
2010,09,28,10,51,14.50
2010,09,28,10,52,14.50
2010,09,28,10,53,14.50
2010,09,28,10,54,14.50
2010,09,28,10,55,14.50
2010,09,28,10,56,14.50
2010,09,28,10,57,14.50
2010,09,28,10,58,14.60
2010,09,28,10,59,14.60
2010,09,28,11,00,14.60
2010,09,28,11,01,14.70
2010,09,28,11,02,14.70
2010,09,28,11,03,14.80
2010,09,28,11,04,14.80
2010,09,28,11,05,14.80
2010,09,28,11,06,14.80
2010,09,28,11,07,14.90
2010,09,28,11,08,15.00
2010,09,28,11,09,15.00
2010,09,28,11,10,15.00
2010,09,28,11,11,15.00
2010,09,28,11,12,15.00
2010,09,28,11,13,15.00
2010,09,28,11,14,15.00
2010,09,28,11,15,15.00
2010,09,28,11,16,15.10
2010,09,28,11,17,15.20
2010,09,28,11,18,15.20
2010,09,28,11,19,15.30
2010,09,28,11,20,15.30
2010,09,28,11,21,15.30
2010,09,28,11,22,15.40
2010,09,28,11,23,15.40
2010,09,28,11,24,15.40
2010,09,28,11,25,15.50
2010,09,28,11,26,15.50
2010,09,28,11,27,15.50
2010,09,28,11,28,15.40
2010,09,28,11,29,15.40
2010,09,28,11,30,15.40
2010,09,28,11,31,15.40
2010,09,28,11,32,15.50
2010,09,28,11,33,15.50
2010,09,28,11,34,15.60
2010,09,28,11,35,15.60
2010,09,28,11,36,15.60
2010,09,28,11,37,15.70
2010,09,28,11,38,15.80
2010,09,28,11,39,15.80
2010,09,28,11,40,15.90
2010,09,28,11,41,16.00
2010,09,28,11,42,16.10
2010,09,28,11,43,16.20
2010,09,28,11,44,16.30
2010,09,28,11,45,16.30
2010,09,28,11,46,16.40
2010,09,28,11,47,16.50
2010,09,28,11,48,16.50
2010,09,28,11,49,16.60
2010,09,28,11,50,16.60
2010,09,28,11,51,16.70
2010,09,28,11,52,16.70
2010,09,28,11,53,16.80
2010,09,28,11,54,16.90
2010,09,28,11,55,17.00
2010,09,28,11,56,17.10
2010,09,28,11,57,17.10
2010,09,28,11,58,17.20
2010,09,28,11,59,17.30
2010,09,28,12,00,17.30
2010,09,28,12,01,17.40
2010,09,28,12,02,17.40
2010,09,28,12,03,17.50
2010,09,28,12,04,17.60
2010,09,28,12,05,17.60
2010,09,28,12,06,17.70
2010,09,28,12,07,17.80
2010,09,28,12,08,17.80
2010,09,28,12,09,17.90
2010,09,28,12,10,17.90
2010,09,28,12,11,17.90
2010,09,28,12,12,18.00
2010,09,28,12,13,18.10
2010,09,28,12,14,18.20
2010,09,28,12,15,18.20
2010,09,28,12,16,18.20
2010,09,28,12,17,18.30
2010,09,28,12,18,18.30
2010,09,28,12,19,18.40
2010,09,28,12,20,18.40
2010,09,28,12,21,18.50
2010,09,28,12,22,18.50
2010,09,28,12,23,18.50
2010,09,28,12,24,18.60
2010,09,28,12,25,18.60
2010,09,28,12,26,18.60
2010,09,28,12,27,18.70
2010,09,28,12,28,18.70
2010,09,28,12,29,18.70
2010,09,28,12,30,18.80
2010,09,28,12,31,18.80
2010,09,28,12,32,18.80
2010,09,28,12,33,18.90
2010,09,28,12,34,18.90
2010,09,28,12,35,18.80
2010,09,28,12,36,18.80
2010,09,28,12,37,18.90
2010,09,28,12,38,18.90
2010,09,28,12,39,18.90
2010,09,28,12,40,19.00
2010,09,28,12,41,19.10
2010,09,28,12,42,19.20
2010,09,28,12,43,19.20
2010,09,28,12,44,19.30
2010,09,28,12,45,19.40
2010,09,28,12,46,19.50
2010,09,28,12,47,19.50
2010,09,28,12,48,19.60
2010,09,28,12,49,19.60
2010,09,28,12,50,19.70
2010,09,28,12,51,19.70
2010,09,28,12,52,19.80
2010,09,28,12,53,19.80
2010,09,28,12,54,19.80
2010,09,28,12,55,19.80
2010,09,28,12,56,19.80
2010,09,28,12,57,19.80
2010,09,28,12,58,19.80
2010,09,28,12,59,19.80
2010,09,28,13,00,19.80
2010,09,28,13,01,19.80
2010,09,28,13,02,19.80
2010,09,28,13,03,19.80
2010,09,28,13,04,19.80
2010,09,28,13,05,19.70
2010,09,28,13,06,19.70
2010,09,28,13,07,19.70
2010,09,28,13,08,19.70
2010,09,28,13,09,19.70
2010,09,28,13,10,19.60
2010,09,28,13,11,19.60
2010,09,28,13,12,19.50
2010,09,28,13,13,19.50
2010,09,28,13,14,19.40
2010,09,28,13,15,19.40
2010,09,28,13,16,19.40
2010,09,28,13,17,19.40
2010,09,28,13,18,19.40
2010,09,28,13,19,19.40
2010,09,28,13,20,19.40
2010,09,28,13,21,19.40
2010,09,28,13,22,19.40
2010,09,28,13,23,19.50
2010,09,28,13,24,19.50
2010,09,28,13,25,19.60
2010,09,28,13,26,19.60
2010,09,28,13,27,19.70
2010,09,28,13,28,19.70
2010,09,28,13,29,19.80
2010,09,28,13,30,19.80
2010,09,28,13,31,19.80
2010,09,28,13,32,19.80
2010,09,28,13,33,19.80
2010,09,28,13,34,19.80
2010,09,28,13,35,19.70
2010,09,28,13,36,19.70
2010,09,28,13,37,19.70
2010,09,28,13,38,19.70
2010,09,28,13,39,19.70
2010,09,28,13,40,19.70
2010,09,28,13,41,19.70
2010,09,28,13,42,19.70
2010,09,28,13,43,19.70
2010,09,28,13,44,19.70
2010,09,28,13,45,19.70
2010,09,28,13,46,19.70
2010,09,28,13,47,19.60
2010,09,28,13,48,19.60
2010,09,28,13,49,19.60
2010,09,28,13,50,19.60
2010,09,28,13,51,19.60
2010,09,28,13,52,19.50
2010,09,28,13,53,19.50
2010,09,28,13,54,19.40
2010,09,28,13,55,19.40
2010,09,28,13,56,19.30
2010,09,28,13,57,19.20
2010,09,28,13,58,19.20
2010,09,28,13,59,19.10
2010,09,28,14,00,19.00
2010,09,28,14,01,18.90
2010,09,28,14,02,18.90
2010,09,28,14,03,18.80
2010,09,28,14,04,18.80
2010,09,28,14,05,18.70
2010,09,28,14,06,18.60
2010,09,28,14,07,18.60
2010,09,28,14,08,18.60
2010,09,28,14,09,18.50
2010,09,28,14,10,18.50
2010,09,28,14,11,18.50
2010,09,28,14,12,18.40
2010,09,28,14,13,18.40
2010,09,28,14,14,18.40
2010,09,28,14,15,18.40
2010,09,28,14,16,18.40
2010,09,28,14,17,18.30
2010,09,28,14,18,18.30
2010,09,28,14,19,18.30
2010,09,28,14,20,18.30
2010,09,28,14,21,18.30
2010,09,28,14,22,18.30
2010,09,28,14,23,18.30
2010,09,28,14,24,18.30
2010,09,28,14,25,18.30
2010,09,28,14,26,18.20
2010,09,28,14,27,18.20
2010,09,28,14,28,18.20
2010,09,28,14,29,18.20
2010,09,28,14,30,18.10
2010,09,28,14,31,18.10
2010,09,28,14,32,18.10
2010,09,28,14,33,18.10
2010,09,28,14,34,18.00
2010,09,28,14,35,18.00
2010,09,28,14,36,18.00
2010,09,28,14,37,18.00
2010,09,28,14,38,18.00
2010,09,28,14,39,18.00
2010,09,28,14,40,18.00
2010,09,28,14,41,18.10
2010,09,28,14,42,18.10
2010,09,28,14,43,18.10
2010,09,28,14,44,18.20
2010,09,28,14,45,18.20
2010,09,28,14,46,18.30
2010,09,28,14,47,18.30
2010,09,28,14,48,18.40
2010,09,28,14,49,18.50
2010,09,28,14,50,18.60
2010,09,28,14,51,18.60
2010,09,28,14,52,18.70
2010,09,28,14,53,18.80
2010,09,28,14,54,18.80
2010,09,28,14,55,18.80
2010,09,28,14,56,18.90
2010,09,28,14,57,18.90
2010,09,28,14,58,18.90
2010,09,28,14,59,18.90
2010,09,28,15,00,18.90
2010,09,28,15,01,18.90
2010,09,28,15,02,18.90
2010,09,28,15,03,18.90
2010,09,28,15,04,18.90
2010,09,28,15,05,18.90
2010,09,28,15,06,18.90
2010,09,28,15,07,18.90
2010,09,28,15,08,18.90
2010,09,28,15,09,18.90
2010,09,28,15,10,18.90
2010,09,28,15,11,18.90
2010,09,28,15,12,18.90
2010,09,28,15,13,18.90
2010,09,28,15,14,18.90
2010,09,28,15,15,18.90
2010,09,28,15,16,18.90
2010,09,28,15,17,18.90
2010,09,28,15,18,18.90
2010,09,28,15,19,19.00
2010,09,28,15,20,19.00
2010,09,28,15,21,19.00
2010,09,28,15,22,19.00
2010,09,28,15,23,19.00
2010,09,28,15,24,19.00
2010,09,28,15,25,19.00
2010,09,28,15,26,18.90
2010,09,28,15,27,18.90
2010,09,28,15,28,18.90
2010,09,28,15,29,18.90
2010,09,28,15,30,18.90
2010,09,28,15,31,18.80
2010,09,28,15,32,18.80
2010,09,28,15,33,18.70
2010,09,28,15,34,18.70
2010,09,28,15,35,18.70
2010,09,28,15,36,18.60
2010,09,28,15,37,18.50
2010,09,28,15,38,18.50
2010,09,28,15,39,18.40
2010,09,28,15,40,18.30
2010,09,28,15,41,18.30
2010,09,28,15,42,18.20
2010,09,28,15,43,18.20
2010,09,28,15,44,18.20
2010,09,28,15,45,18.20
2010,09,28,15,46,18.10
2010,09,28,15,47,18.00
2010,09,28,15,48,18.00
2010,09,28,15,49,18.00
2010,09,28,15,50,17.90
2010,09,28,15,51,17.90
2010,09,28,15,52,17.90
2010,09,28,15,53,17.90
2010,09,28,15,54,17.90
2010,09,28,15,55,17.90
2010,09,28,15,56,17.90
2010,09,28,15,57,17.90
2010,09,28,15,58,17.90
2010,09,28,15,59,17.90
2010,09,28,16,00,17.90
2010,09,28,16,01,18.00
2010,09,28,16,02,18.00
2010,09,28,16,03,18.10
2010,09,28,16,04,18.10
2010,09,28,16,05,18.20
2010,09,28,16,06,18.20
2010,09,28,16,07,18.20
2010,09,28,16,08,18.30
2010,09,28,16,09,18.30
2010,09,28,16,10,18.40
2010,09,28,16,11,18.40
2010,09,28,16,12,18.40
2010,09,28,16,13,18.40
2010,09,28,16,14,18.40
2010,09,28,16,15,18.50
2010,09,28,16,16,18.50
2010,09,28,16,17,18.50
2010,09,28,16,18,18.50
2010,09,28,16,19,18.50
2010,09,28,16,20,18.40
2010,09,28,16,21,18.40
2010,09,28,16,22,18.40
2010,09,28,16,23,18.40
2010,09,28,16,24,18.40
2010,09,28,16,25,18.40
2010,09,28,16,26,18.30
2010,09,28,16,27,18.30
2010,09,28,16,28,18.30
2010,09,28,16,29,18.20
2010,09,28,16,30,18.20
2010,09,28,16,31,18.20
2010,09,28,16,32,18.10
2010,09,28,16,33,18.10
2010,09,28,16,34,18.00
2010,09,28,16,35,18.00
2010,09,28,16,36,17.90
2010,09,28,16,37,17.90
2010,09,28,16,38,17.90
2010,09,28,16,39,17.80
2010,09,28,16,40,17.80
2010,09,28,16,41,17.80
2010,09,28,16,42,17.80
2010,09,28,16,43,17.80
2010,09,28,16,44,17.80
2010,09,28,16,45,17.90
2010,09,28,16,46,17.90
2010,09,28,16,47,17.90
2010,09,28,16,48,17.90
2010,09,28,16,49,17.90
2010,09,28,16,50,18.00
2010,09,28,16,51,18.00
2010,09,28,16,52,18.00
2010,09,28,16,53,18.10
2010,09,28,16,54,18.10
2010,09,28,16,55,18.10
2010,09,28,16,56,18.10
2010,09,28,16,57,18.10
2010,09,28,16,58,18.00
2010,09,28,16,59,18.00
2010,09,28,17,00,18.00
2010,09,28,17,01,17.90
2010,09,28,17,02,17.90
2010,09,28,17,03,17.90
2010,09,28,17,04,17.90
2010,09,28,17,05,17.80
2010,09,28,17,06,17.80
2010,09,28,17,07,17.80
2010,09,28,17,08,17.70
2010,09,28,17,09,17.60
2010,09,28,17,10,17.60
2010,09,28,17,11,17.50
2010,09,28,17,12,17.50
2010,09,28,17,13,17.40
2010,09,28,17,14,17.40
2010,09,28,17,15,17.40
2010,09,28,17,16,17.40
2010,09,28,17,17,17.30
2010,09,28,17,18,17.30
2010,09,28,17,19,17.30